User: anonymous
Location: Unspecified
(0.0000°N, 0.0000°E)
Time: 05:45:59
(UTC+00:00)
Language:

NOAA 17 - Orbit

View from above orbital plane
View from above orbital plane
View from above satellite
View from above satellite

Ground track
Ground track

The orbit data is extracted from the following two-line orbital elements,

1 27453U 02032A   14203.09632802  .00000037  00000-0  33121-4 0  6618
2 27453 098.3149 200.9731 0012835 075.1728 285.0873 14.24758100627659
Epoch (UTC): 22 July 2014 02:18:42
Eccentricity: 0.0012835
inclination: 98.3149°
perigee height: 800 km
apogee height: 818 km
right ascension of ascending node: 200.9731°
argument of perigee: 75.1728°
revolutions per day: 14.24758100
mean anomaly at epoch: 285.0873°
orbit number at epoch: 62765

The dashed part of the orbit path shows where the satellite is in the earth's shadow,  

DLR